This demonstration page uses our WeatherBlox Daily Observations layout. Learn more.

Left ArrowRight Arrow

47.50024, -111.30081

Hourly Observations for April 12, 2016

Temp ( °F °C ) Dew Point ( °F °C ) Humidity (%) Winds ( mph kmh ) Pressure ( in mb ) Visibility ( mi km ) Precip ( " mm )
12:53 am 00:53 Clear 45 7.2 30 -1.1 56 56 SSW 12 19 29.85 1011 10 16 0.00 0.00
1:53 am 01:53 Clear 47 8.3 30 -1.1 52 52 SW 14 22 29.85 1011 10 16 0.00 0.00
2:53 am 02:53 Clear 47 8.3 29 -1.7 50 50 SW 13 20 29.85 1011 10 16 0.00 0.00
3:53 am 03:53 Clear 46 7.8 29 -1.7 51 51 SW 12 19 29.86 1011 10 16 0.00 0.00
4:53 am 04:53 Clear 43 6.1 29 -1.7 58 58 SW 13 20 29.88 1012 10 16 0.00 0.00
5:53 am 05:53 Clear 41 5 28 -2.2 60 60 WSW 7 11 29.89 1012 10 16 0.00 0.00
6:53 am 06:53 Sunny 39 3.9 27 -2.8 62 62 SW 3 6 29.91 1013 10 16 0.00 0.00
7:53 am 07:53 Sunny 49 9.4 33 0.6 55 55 WSW 7 11 29.94 1014 10 16 0.00 0.00
8:53 am 08:53 Sunny 57 13.9 32 0 39 39 WNW 5 7 29.93 1013 10 16 0.00 0.00
9:53 am 09:53 Sunny 60 15.6 33 0.6 36 36 WSW 6 9 29.92 1013 10 16 0.00 0.00
10:53 am 10:53 Sunny 65 18.3 34 1.1 32 32 WSW 8 13 29.88 1012 10 16 0.00 0.00
11:53 am 11:53 Sunny 69 20.6 33 0.6 26 26 W 16 26 29.88 1012 10 16 0.00 0.00
12:53 pm 12:53 Partly Cloudy 71 21.7 35 1.7 27 27 SW 14 22 29.86 1011 10 16 0.00 0.00
1:53 pm 13:53 Mostly Cloudy 69 20.6 34 1.1 27 27 VRB 7 11 29.85 1011 10 16 0.00 0.00
2:53 pm 14:53 Partly Cloudy 69 20.6 35 1.7 29 29 W 8 13 29.85 1011 10 16 0.00 0.03
3:42 pm 15:42 Mostly Cloudy with Thunderstorms 66 19 36 2 32 32 WNW 13 20 29.74 1007 10 16 0.00 0.00
3:53 pm 15:53 Cloudy with Thunderstorms 64 17.8 37 2.8 37 37 NNW 12 19 29.86 1011 10 16 0.00 0.03
4:24 pm 16:24 Mostly Cloudy 70 21 39 4 33 33 W 7 11 29.71 1006 10 16 0.00 0.00
4:53 pm 16:53 Mostly Sunny 71 21.7 36 2.2 28 28 NW 8 13 29.83 1010 10 16 0.00 0.03
5:53 pm 17:53 Cloudy with Light Rain 66 18.9 35 1.7 32 32 W 10 17 29.86 1011 10 16 0.00 0.03
6:53 pm 18:53 Cloudy with Light Rain 56 13.3 46 7.8 70 70 S 15 24 29.93 1014 10 16 0.00 0.03
7:53 pm 19:53 Cloudy 57 13.9 44 6.7 62 62 ESE 6 9 29.89 1012 10 16 0.00 0.03
8:53 pm 20:53 Cloudy 54 12.2 47 8.3 77 77 ESE 9 15 29.88 1012 10 16 0.01 0.25
9:53 pm 21:53 Clear 47 8.3 43 6.1 86 86 Calm 29.90 1013 10 16 0.00 0.03
10:53 pm 22:53 Mostly Cloudy 48 8.9 44 6.7 86 86 SSW 3 6 29.88 1012 10 16 0.00 0.00
11:53 pm 23:53 Cloudy 50 10 44 6.7 80 80 WSW 9 15 29.85 1011 10 16 0.00 0.00

Powered by AerisWeather